Total_Precipitation_Accumulation
0.18 0.25 0.28 0.32 0.27 0.21 0.18 0.17 0.29 0.37 0.52 0.66 0.66 0.76 1.02 0.87 0.76 0.68 0.67 0.58 0.55 0.64 0.79 0.89 0.92 0.91 1.01 1.15 1.28 1.43 1.55 1.68 1.93 2.21 2.07 1.82 1.76 1.71 1.65 1.73 1.87 2.18 2.34 2.42
0.16 0.22 0.26 0.28 0.29 0.24 0.20 0.18 0.18 0.30 0.49 0.58 0.69 0.74 0.82 0.83 0.85 0.84 0.77 0.75 0.75 0.90 0.95 0.99 1.05 1.01 0.97 1.02 1.12 1.32 1.46 1.59 1.77 1.89 1.74 1.56 1.44 1.47 1.50 1.59 1.77 1.95 2.09 2.21
0.29 0.25 0.29 0.34 0.30 0.28 0.24 0.29 0.28 0.37 0.49 0.55 0.77 0.75 0.75 0.91 0.99 0.92 0.76 0.81 0.86 0.92 1.06 1.00 0.98 0.99 0.99 1.05 1.23 1.42 1.46 1.50 1.63 1.73 1.71 1.60 1.43 1.44 1.51 1.61 1.74 1.82 1.86 1.91
0.44 0.46 0.56 0.43 0.38 0.35 0.32 0.37 0.38 0.42 0.49 0.60 0.78 0.78 0.67 0.72 0.77 0.85 0.87 0.95 0.94 0.94 0.99 0.93 0.88 0.98 1.02 1.02 1.26 1.48 1.52 1.57 1.71 1.87 1.88 1.81 1.74 1.71 1.80 1.86 1.82 1.81 1.85 1.89
0.64 0.62 0.55 0.53 0.52 0.53 0.59 0.75 0.68 0.60 0.57 0.63 0.63 0.73 0.81 0.69 0.63 0.75 0.86 1.04 1.09 1.02 1.07 1.11 1.14 1.20 1.22 1.21 1.39 1.60 1.70 1.75 1.82 1.97 2.03 2.05 2.13 2.17 2.22 2.20 2.06 2.03 2.10 2.13
0.72 0.79 0.78 0.76 0.64 0.59 0.76 1.23 1.10 0.87 0.73 0.69 0.70 1.03 1.19 0.98 0.82 0.84 0.85 1.01 1.20 1.20 1.07 1.12 1.17 1.28 1.48 1.55 1.64 1.73 1.88 2.03 2.05 2.18 2.30 2.27 2.36 2.49 2.62 2.65 2.54 2.56 2.43 2.26
0.79 0.89 0.94 0.87 0.67 0.70 1.30 1.67 1.29 1.09 1.01 0.92 0.99 1.03 1.09 0.97 0.89 0.91 0.89 0.97 1.10 1.31 1.21 1.17 1.27 1.43 1.64 1.76 1.93 2.00 2.09 2.17 2.19 2.33 2.48 2.62 2.82 3.00 3.02 2.97 2.97 2.87 2.59 2.46
0.99 1.21 1.29 0.87 0.85 1.18 1.48 1.29 1.30 1.34 1.43 1.36 1.14 0.94 0.94 0.99 0.90 0.89 0.89 0.93 0.95 1.04 1.16 1.25 1.34 1.62 1.81 1.83 1.90 2.04 2.17 2.27 2.42 2.52 2.54 2.65 3.01 3.14 3.14 3.11 2.97 2.80 2.65 2.44
1.23 1.41 1.18 0.97 1.10 1.16 1.28 1.35 1.40 1.46 1.51 1.36 1.16 1.01 1.02 1.04 0.94 0.86 0.84 0.90 0.95 0.98 1.10 1.28 1.48 1.72 2.02 2.10 2.04 2.02 2.14 2.30 2.47 2.61 2.81 3.00 3.16 3.13 3.06 3.03 2.91 2.75 2.61 2.40
1.42 1.43 1.16 1.13 1.19 1.15 1.22 1.30 1.42 1.36 1.30 1.28 1.21 1.07 1.05 1.00 0.87 0.83 0.85 0.90 0.94 1.02 1.14 1.33 1.55 1.76 2.05 2.03 1.95 2.00 2.02 2.15 2.27 2.35 2.43 2.58 2.84 2.81 2.67 2.64 2.69 2.68 2.64 2.51
1.65 1.66 1.55 1.50 1.45 1.35 1.25 1.23 1.24 1.27 1.21 1.24 1.26 1.22 1.05 1.00 0.94 0.83 0.85 0.90 0.97 1.11 1.31 1.42 1.58 1.71 1.76 1.76 1.78 1.81 1.82 1.90 1.93 1.98 2.06 2.15 2.26 2.38 2.37 2.37 2.37 2.39 2.38 2.34
1.95 1.76 1.71 1.91 1.75 1.57 1.37 1.30 1.33 1.31 1.26 1.28 1.31 1.35 1.16 1.04 1.02 0.92 0.89 0.95 1.11 1.22 1.32 1.46 1.69 1.87 1.87 1.82 1.87 1.91 1.85 1.81 1.79 1.82 1.86 1.88 1.97 2.02 2.06 1.96 1.87 1.78 1.73 1.71
1.72 1.62 1.60 1.66 1.62 1.49 1.37 1.39 1.50 1.54 1.45 1.32 1.31 1.31 1.20 1.07 1.04 0.98 0.97 1.05 1.19 1.20 1.24 1.39 1.55 1.68 1.81 1.97 2.08 2.13 2.04 1.94 1.84 1.76 1.76 1.79 1.82 1.91 1.94 1.85 1.70 1.54 1.42 1.35
1.73 1.67 1.67 1.58 1.52 1.42 1.33 1.38 1.47 1.44 1.44 1.36 1.32 1.27 1.20 1.09 1.10 1.14 1.09 1.15 1.28 1.32 1.34 1.44 1.54 1.62 1.70 1.94 2.12 2.19 2.14 2.03 1.87 1.76 1.71 1.71 1.74 1.78 1.88 1.97 1.88 1.68 1.45 1.27
2.03 1.88 1.77 1.73 1.68 1.58 1.40 1.38 1.42 1.38 1.30 1.33 1.36 1.39 1.35 1.30 1.25 1.25 1.19 1.16 1.29 1.39 1.45 1.51 1.55 1.57 1.71 1.85 1.94 1.96 1.95 1.85 1.72 1.67 1.68 1.69 1.74 1.75 1.72 1.76 1.74 1.68 1.52 1.32
2.03 1.91 1.74 1.73 1.75 1.72 1.60 1.51 1.51 1.50 1.43 1.35 1.37 1.40 1.42 1.44 1.34 1.27 1.21 1.21 1.33 1.36 1.35 1.47 1.57 1.56 1.66 1.86 1.93 1.92 1.91 1.87 1.71 1.64 1.73 1.77 1.76 1.77 1.73 1.80 1.78 1.72 1.54 1.33
1.92 1.91 1.76 1.59 1.60 1.64 1.55 1.48 1.45 1.48 1.47 1.42 1.35 1.29 1.26 1.26 1.32 1.30 1.21 1.15 1.22 1.34 1.36 1.48 1.55 1.54 1.64 1.82 2.01 1.97 1.90 1.85 1.74 1.63 1.67 1.79 1.82 1.80 1.74 1.76 1.73 1.73 1.59 1.40
1.60 1.64 1.62 1.53 1.41 1.40 1.41 1.36 1.40 1.43 1.46 1.43 1.36 1.31 1.31 1.36 1.48 1.53 1.48 1.40 1.40 1.39 1.37 1.40 1.45 1.48 1.57 1.70 1.78 1.78 1.81 1.75 1.61 1.46 1.49 1.59 1.65 1.68 1.71 1.67 1.68 1.70 1.64 1.49
1.40 1.54 1.57 1.49 1.45 1.32 1.39 1.39 1.39 1.41 1.39 1.42 1.44 1.41 1.38 1.44 1.56 1.65 1.70 1.67 1.63 1.56 1.46 1.38 1.47 1.45 1.54 1.65 1.68 1.68 1.65 1.59 1.46 1.30 1.31 1.44 1.50 1.57 1.62 1.59 1.57 1.56 1.50 1.41
1.57 1.61 1.55 1.45 1.50 1.53 1.49 1.49 1.47 1.48 1.38 1.33 1.38 1.46 1.55 1.59 1.67 1.73 1.75 1.70 1.60 1.54 1.46 1.36 1.29 1.27 1.35 1.50 1.61 1.59 1.56 1.52 1.47 1.31 1.29 1.44 1.53 1.62 1.59 1.54 1.54 1.54 1.44 1.42
1.57 1.52 1.42 1.33 1.35 1.37 1.31 1.32 1.33 1.38 1.44 1.43 1.52 1.63 1.70 1.68 1.71 1.84 1.95 1.82 1.55 1.51 1.46 1.43 1.33 1.31 1.30 1.43 1.53 1.52 1.52 1.53 1.57 1.46 1.41 1.45 1.51 1.57 1.52 1.46 1.45 1.44 1.44 1.48
1.50 1.48 1.48 1.44 1.40 1.30 1.18 1.17 1.25 1.34 1.43 1.53 1.61 1.71 1.77 1.80 1.84 1.84 1.78 1.82 1.70 1.71 1.61 1.48 1.41 1.39 1.38 1.39 1.41 1.46 1.48 1.51 1.62 1.58 1.51 1.52 1.59 1.63 1.62 1.55 1.50 1.45 1.44 1.48
1.46 1.50 1.47 1.47 1.50 1.43 1.30 1.25 1.22 1.31 1.41 1.44 1.53 1.72 1.81 1.79 1.87 2.06 1.87 1.57 1.50 1.58 1.58 1.55 1.52 1.43 1.33 1.21 1.31 1.43 1.46 1.50 1.53 1.49 1.39 1.37 1.41 1.46 1.46 1.38 1.35 1.35 1.35 1.35
1.56 1.51 1.50 1.51 1.51 1.42 1.38 1.37 1.34 1.36 1.32 1.28 1.36 1.54 1.75 1.85 1.80 1.72 1.72 1.63 1.46 1.37 1.30 1.35 1.35 1.31 1.32 1.26 1.32 1.41 1.44 1.48 1.47 1.38 1.32 1.31 1.34 1.35 1.33 1.30 1.29 1.30 1.32 1.35
1.59 1.53 1.47 1.47 1.51 1.49 1.42 1.42 1.48 1.45 1.35 1.33 1.31 1.36 1.48 1.65 1.76 1.62 1.43 1.37 1.31 1.17 1.11 1.12 1.10 1.13 1.14 1.15 1.18 1.28 1.42 1.53 1.50 1.36 1.24 1.26 1.27 1.26 1.21 1.18 1.22 1.31 1.36 1.36
1.59 1.57 1.52 1.47 1.43 1.43 1.42 1.47 1.62 1.61 1.61 1.66 1.55 1.44 1.48 1.49 1.50 1.54 1.45 1.30 1.21 1.11 1.00 1.04 1.03 1.01 1.02 1.10 1.12 1.15 1.27 1.45 1.50 1.41 1.27 1.28 1.26 1.25 1.26 1.24 1.19 1.21 1.26 1.26
1.62 1.58 1.53 1.50 1.44 1.37 1.44 1.55 1.67 1.72 1.79 1.87 1.88 1.73 1.61 1.47 1.44 1.45 1.43 1.38 1.25 1.14 1.08 1.06 1.02 1.00 1.01 1.03 0.99 0.96 1.05 1.19 1.26 1.31 1.36 1.37 1.38 1.39 1.35 1.29 1.20 1.15 1.16 1.17